Home > Weather > Frankfurt > Past weeks

Flag for Germany Past Weather in Frankfurt, Hesse, Germany — Yesterday and Last 2 Weeks

Now
61 °F

Light rain. Partly sunny.


Feels Like: 61 °F
Forecast: 51 / 66 °F
Wind: 8 mph from Southwest

Location: Frankfurt-M-Flughafen Airport

Current Time: Jul 2, 2016 at 11:32:46 AM

Latest Report: Jul 2, 2016 at 10:50 AM


Visibility: N/A

Pressure: 29.98 "Hg

Humidity: 77%

Dew Point: 54 °F

Location of FrankfurtLocation

Past Weather in Frankfurt — Graph

°F

Frankfurt Temperature Yesterday

Maximum temperature yesterday: 75 °F (at 2:50 PM)
Minimum temperature yesterday: 57 °F (at 3:50 AM)
Average temperature yesterday: 68 °F

High & Low Weather Summary for the Past Weeks

 TemperatureHumidityPressure
High93 °F (Jun 23, 4:50 PM)100% (Jun 18, 12:20 AM)30.27 "Hg (Jun 18, 12:20 AM)
Low45 °F (Jun 20, 4:50 AM)30% (Jun 23, 4:50 PM)29.71 "Hg (Jun 17, 10:20 AM)
Average66 °F75%30.05 "Hg
* Reported Jun 17 10:20 AM — Jul 2 10:20 AM, Frankfurt, Weather by CustomWeather, © 2016

Note: Actual official high and low records may vary slightly from our data, if they occured in-between our weather recording intervals... More about our weather records

Advertising

Frankfurt Weather History for the Previous 24 Hours

Scroll right to see more
 ConditionsComfort  
Time TempWeatherWind HumidityBarometerVisibility
10:20 AM
Sat, Jul 2
59 °FLight rain. Broken clouds.8 mph88%29.98 "HgN/A
9:50 AM63 °FLight rain. Broken clouds.10 mph73%29.98 "HgN/A
9:20 AM63 °FBroken clouds.9 mph73%29.95 "HgN/A
8:50 AM63 °FBroken clouds.9 mph83%29.95 "HgN/A
8:20 AM63 °FScattered showers. Broken clouds.8 mph83%29.95 "HgN/A
7:50 AM66 °FSprinkles. Partly sunny.18 mph73%29.92 "HgN/A
7:20 AM68 °FBroken clouds.8 mph73%29.89 "HgN/A
6:50 AM66 °FBroken clouds.7 mph78%29.89 "HgN/A
6:20 AM66 °FPassing clouds.7 mph78%29.89 "HgN/A
5:50 AM66 °FPassing clouds.7 mph78%29.89 "HgN/A
5:20 AM64 °FPartly cloudy.8 mph88%29.89 "HgN/A
4:50 AM63 °FPassing clouds.3 mph94%29.89 "HgN/A
4:20 AM64 °FPassing clouds.3 mph88%29.89 "HgN/A
3:50 AM64 °FClear.5 mph88%29.89 "Hg10 mi
3:20 AM64 °FClear.6 mph88%29.89 "Hg10 mi
2:50 AM66 °FPassing clouds.3 mph88%29.89 "HgN/A
2:20 AM66 °FPassing clouds.5 mph83%29.89 "HgN/A
1:50 AM66 °FPassing clouds.3 mph83%29.92 "HgN/A
1:20 AM66 °FClear.2 mph83%29.92 "Hg10 mi
12:50 AM66 °FClear.2 mph88%29.92 "Hg10 mi
12:20 AM68 °FClear.3 mph78%29.92 "Hg10 mi
11:50 PM
Fri, Jul 1
68 °FClear.5 mph78%29.92 "Hg10 mi
11:20 PM68 °FClear.5 mph78%29.95 "Hg10 mi
10:50 PM68 °FClear.5 mph78%29.95 "Hg10 mi
10:20 PM68 °FSunny.2 mph78%29.95 "Hg10 mi
9:50 PM68 °FScattered clouds.3 mph78%29.95 "HgN/A
9:20 PM70 °FScattered clouds.2 mph73%29.95 "HgN/A
8:50 PM73 °FScattered clouds.5 mph61%29.95 "HgN/A
8:20 PM75 °FScattered clouds.9 mph54%29.95 "HgN/A
7:50 PM75 °FScattered clouds.9 mph54%29.95 "HgN/A
7:20 PM73 °FScattered clouds.10 mph57%29.95 "HgN/A
6:50 PM73 °FScattered clouds.9 mph57%29.98 "HgN/A
6:20 PM73 °FScattered clouds.12 mph57%29.98 "HgN/A
5:50 PM73 °FPartly sunny.15 mph57%29.98 "HgN/A
5:20 PM75 °FPartly sunny.14 mph54%29.98 "HgN/A
4:50 PM73 °FPartly sunny.14 mph57%29.98 "HgN/A
4:20 PM75 °FPartly sunny.18 mph57%29.98 "HgN/A
3:50 PM75 °FPartly sunny.18 mph57%29.98 "HgN/A
3:20 PM73 °FPartly sunny.15 mph57%30.01 "HgN/A
2:50 PM75 °FPartly sunny.15 mph54%29.98 "HgN/A
2:20 PM73 °FPartly sunny.18 mph57%30.01 "HgN/A
1:50 PM73 °FPartly sunny.16 mph57%30.01 "HgN/A
1:20 PM73 °FPartly sunny.18 mph57%30.01 "HgN/A
12:50 PM73 °FPartly sunny.17 mph53%30.01 "HgN/A
12:20 PM72 °FPartly sunny.18 mph61%30.01 "HgN/A
11:50 AM73 °FPartly sunny.13 mph61%30.01 "HgN/A
11:20 AM73 °FScattered clouds.15 mph61%30.01 "HgN/A
Weather by CustomWeather, © 2016

See weather overviewHow to use our weather pages